DECAYED

THOR ABLESTAR DEB, 253 (Decayed)

Orbit data source: Space-Track

THOR ABLESTAR DEB, 253 was space debris in LEO originally from a launch on Thu, 29 Jun 1961 UTC launched from the Air Force Eastern Test Range (AFETR). Debris objects in space refer to the collection of defunct objects orbiting the Earth. Examples of debris include non-operational satellites, rocket bodies, and fragments generated from explosions, collisions, or faulty payload assembly.

Not visible in the next 10 days
Identifier
253, 1961-015CE
Orbit
Decayed
Country
Flag of USUS
Related business
Manufacturer
Unknown
Mission
Decayed spacecraft
Bus & Motor
Unknown
Mass
Unknown
Launch date (UTC)
1961-06-29 (65 years ago)
Launch vehicle
Unknown
Launch site
Air Force Eastern Test Range (AFETR)
Object type
Payload
Rocket body
Debris
Shape & HBR
Unknown shape, 0.1 m
Radar Cross Section
Medium (>0.1 m² and <1 m²)

Expand to show TLE details & history
Last TLE update: 6 months ago

TLE from 6 months ago
0 THOR ABLESTAR DEB
1 00253U 61015CE  26070.64522491  .14730416  61813-5  53127-2 0  9991
2 00253  66.8670 259.3503 0011005 286.7362  73.2627 16.24370273365245
Epoch: 2026-03-11T15:29Z
TLE epoch observation values (Epoch: 2026-03-11T15:29:07.432Z)
Latitude
-0.00001°
Longitude
-142.23716°
Altitude
207.94 km
Speed
7.783 km/s
True Right ascension
17h 17m 24s
True Declination
0° 00' 00"
Sunlit
Object was in daylight at epoch
Visualization orbit readout
Latitude
Unknown
Longitude
Unknown
Altitude
Unknown
Speed
Unknown
Apparent Right ascension
Unknown
Apparent Declination
Unknown
Sunlit
N/A
Visualization observer readout
Local Sidereal Time
18:45:24
Azimuth
Unknown
Elevation
Unknown
Doppler factor
Unknown
Orbital elements
Apogee altitude
213.167 km
Perigee altitude
198.676 km
Semi-major axis
6,584.059 km
Eccentricity
0.0011
Inclination
66.867°
RAAN
259.3503°
Arg. of periapsis
286.7362°
True anomaly
73.38351°
Mean anomaly
73.2627°
Eccentric anomaly
73.3231°
Mean motion
4.06259 °/min
Orbital period
88.61 mins
BSTAR
0.0053127

Documentation

Showing up to 5 results
|